Munster, IN

7:39 PM CST on December 07, 2016 (GMT -0600)
Lansing Municipal

Weather History for KIGQ - April, 2013

Change the Weather History Date:

Wednesday, April 10, 2013

  Actual Average (KMDW) Record (KMDW)
Temperature  
Mean Temperature 41 °F 48 °F  
Max Temperature 44 °F 57 °F 91 °F (1930)
Min Temperature 38 °F 40 °F 22 °F (1989)
Degree Days  
Heating Degree Days 24 17  
Month to date heating degree days 186  
Since 1 July heating degree days 5509  
Cooling Degree Days 0 0  
Month to date cooling degree days 0  
Year to date cooling degree days 1  
Moisture  
Dew Point 39 °F    
Average Humidity 94    
Maximum Humidity 100    
Minimum Humidity 87    
Precipitation  
Precipitation 0.48 in 0.13 in 1.15 in (2013)
Month to date precipitation 1.17  
Year to date precipitation 7.89  
Sea Level Pressure  
Sea Level Pressure 29.88 in    
Wind  
Wind Speed 10 mph (NNE)    
Max Wind Speed 21 mph    
Max Gust Speed 26 mph    
Visibility 6 miles    
Events Rain , Thunderstorm    
T = Trace of Precipitation, MM = Missing Value Source: NWS Daily Summary

Daily Weather History Graph

Daily Weather History Graph

Search for Another Location

Airport or City:

Trip Planner

Search our weather history database for the weather conditions in past years. The results will help you decide how hot, cold, wet, or windy it might be!

Date:

Astronomy

Apr. 10, 2013 Rise Set
Actual Time 6:17 AM CDT 7:25 PM CDT
Civil Twilight 5:49 AM CDT 7:54 PM CDT
Nautical Twilight 5:15 AM CDT 8:28 PM CDT
Astronomical Twilight 4:39 AM CDT 9:03 PM CDT
Moon 6:13 AM CDT (4/10) 8:01 PM CDT (4/10)
Length of Visible Light 14h 04m
Length of Day
13h 07m
New Moon, 0% of the Moon is Illuminated
Apr 10
New Moon
Apr 18
First Quarter
Apr 25
Full
May 2
Last Quarter
May 9
New

Hourly Weather History & Observations

Time (CDT) Temp. Windchill Dew Point Humidity Pressure Visibility Wind Dir Wind Speed Gust Speed Precip Events Conditions
12:15 AM 41.2 °F 35.0 °F 40.1 °F 96% 29.92 in 4.0 mi NNE 10.4 mph 18.4 mph N/A   Overcast
12:35 AM 41.2 °F 35.5 °F 40.1 °F 96% 29.92 in 5.0 mi North 9.2 mph - N/A   Overcast
12:55 AM 41.0 °F 35.8 °F 41.0 °F 100% 29.93 in 2.0 mi North 8.1 mph - N/A   Overcast
1:15 AM 41.0 °F 36.4 °F 40.1 °F 97% 29.93 in 3.0 mi NNE 6.9 mph - N/A   Overcast
1:35 AM 41.0 °F 35.2 °F 40.1 °F 97% 29.91 in 3.0 mi NNE 9.2 mph - N/A   Overcast
1:55 AM 41.4 °F 35.7 °F 40.5 °F 97% 29.89 in 3.0 mi NNE 9.2 mph - N/A   Overcast
2:15 AM 41.4 °F 37.6 °F 40.5 °F 97% 29.88 in 4.0 mi NNE 5.8 mph - N/A   Overcast
2:35 AM 41.7 °F 38.8 °F 40.5 °F 95% 29.88 in 4.0 mi NNE 4.6 mph - N/A   Overcast
2:55 AM 41.9 °F 40.0 °F 40.8 °F 96% 29.88 in 4.0 mi North 3.5 mph - N/A   Overcast
3:15 AM 42.1 °F 37.7 °F 40.6 °F 95% 29.88 in 5.0 mi North 6.9 mph - N/A   Overcast
3:35 AM 42.1 °F 38.4 °F 40.6 °F 95% 29.87 in 5.0 mi North 5.8 mph - N/A   Overcast
3:55 AM 41.5 °F 35.0 °F 40.1 °F 95% 29.87 in 7.0 mi North 11.5 mph - N/A   Overcast
4:15 AM 41.4 °F 35.7 °F 39.7 °F 94% 29.88 in 7.0 mi North 9.2 mph - N/A   Overcast
4:35 AM 41.0 °F 33.1 °F 39.4 °F 94% 29.88 in 10.0 mi NNE 15.0 mph 21.9 mph N/A   Overcast
4:55 AM 41.0 °F 34.7 °F 39.2 °F 93% 29.88 in 10.0 mi North 10.4 mph 23.0 mph N/A   Overcast
5:15 AM 40.5 °F 33.6 °F 38.8 °F 94% 29.87 in 10.0 mi NNE 11.5 mph 17.3 mph N/A   Overcast
5:35 AM 40.6 °F 33.4 °F 39.2 °F 95% 29.87 in 10.0 mi North 12.7 mph 18.4 mph N/A   Overcast
5:55 AM 41.0 °F 34.3 °F 39.2 °F 93% 29.86 in 10.0 mi NNE 11.5 mph - N/A   Overcast
6:15 AM 40.5 °F 34.1 °F 38.7 °F 93% 29.87 in 10.0 mi North 10.4 mph - N/A   Overcast
6:35 AM 40.6 °F 35.4 °F 38.7 °F 93% 29.87 in 10.0 mi NNE 8.1 mph - N/A   Overcast
6:55 AM 41.0 °F - 38.8 °F 92% 29.89 in 7.0 mi Calm Calm - N/A   Overcast
7:15 AM 40.5 °F 32.5 °F 38.3 °F 92% 29.90 in 7.0 mi North 15.0 mph 20.7 mph N/A   Overcast
7:35 AM 40.1 °F 33.6 °F 38.3 °F 93% 29.91 in 4.0 mi North 10.4 mph 23.0 mph N/A   Overcast
7:55 AM 40.1 °F 32.7 °F 38.5 °F 94% 29.89 in 2.5 mi NNE 12.7 mph 20.7 mph 0.01 in Rain Light Rain
8:15 AM 40.1 °F 31.0 °F 38.7 °F 95% 29.96 in 2.0 mi NNW 18.4 mph 26.5 mph N/A Rain , Thunderstorm Light Thunderstorms and Rain
8:35 AM 39.4 °F 30.1 °F 38.3 °F 96% 29.91 in 2.5 mi NNE 18.4 mph 26.5 mph N/A Rain , Thunderstorm Light Thunderstorms and Rain
8:55 AM 38.8 °F 30.8 °F 37.4 °F 95% 29.90 in 3.0 mi NNE 13.8 mph 18.4 mph 0.01 in Rain , Thunderstorm Light Thunderstorms and Rain
9:15 AM 39.2 °F 32.5 °F 37.9 °F 95% 29.88 in 7.0 mi East 10.4 mph 18.4 mph N/A Rain , Thunderstorm Light Thunderstorms and Rain
9:35 AM 40.1 °F 36.1 °F 38.7 °F 95% 29.86 in 7.0 mi ENE 5.8 mph - N/A Thunderstorm Thunderstorm
9:55 AM 40.5 °F 37.3 °F 39.2 °F 95% 29.86 in 4.0 mi East 4.6 mph - 0.02 in Rain Heavy Rain
10:15 AM 41.4 °F 39.4 °F 40.1 °F 95% 29.87 in 5.0 mi East 3.5 mph - N/A Thunderstorm Unknown
10:35 AM 41.9 °F - 40.5 °F 95% 29.89 in 7.0 mi Calm Calm - N/A Thunderstorm Overcast
10:55 AM 42.3 °F - 40.8 °F 95% 29.88 in 5.0 mi Calm Calm - N/A   Overcast
11:15 AM 43.2 °F 41.5 °F 41.4 °F 93% 29.87 in 5.0 mi NE 3.5 mph - N/A   Overcast
11:35 AM 43.9 °F 41.3 °F 42.1 °F 93% 29.90 in 4.0 mi NW 4.6 mph - N/A   Overcast
11:55 AM 44.2 °F 39.7 °F 42.4 °F 93% 29.87 in 5.0 mi North 8.1 mph - N/A   Overcast
12:15 PM 41.5 °F 35.4 °F 39.6 °F 93% 29.91 in 7.0 mi North 10.4 mph 16.1 mph N/A   Overcast
12:35 PM 40.8 °F 33.3 °F 38.5 °F 91% 29.91 in 10.0 mi North 13.8 mph 19.6 mph N/A Thunderstorm Thunderstorm
12:55 PM 40.3 °F 31.6 °F 38.3 °F 93% 29.86 in 10.0 mi NNE 17.3 mph 25.3 mph 0.01 in   Overcast
1:15 PM 40.1 °F 33.6 °F 37.9 °F 92% 29.91 in 10.0 mi North 10.4 mph 20.7 mph N/A   Overcast
1:35 PM 40.1 °F 32.4 °F 38.1 °F 93% 29.94 in 10.0 mi North 13.8 mph 19.6 mph N/A   Overcast
1:55 PM 41.0 °F 33.1 °F 37.4 °F 87% 29.94 in 10.0 mi North 15.0 mph 21.9 mph N/A   Overcast
2:15 PM 39.2 °F 30.2 °F 37.6 °F 94% 29.93 in 7.0 mi NNE 17.3 mph 20.7 mph N/A Rain Light Rain
2:35 PM 39.2 °F 29.8 °F 37.9 °F 95% 29.88 in 5.0 mi NE 18.4 mph 26.5 mph 0.01 in Rain Light Rain
2:55 PM 39.2 °F 29.3 °F 37.9 °F 95% 29.89 in 4.0 mi North 20.7 mph 24.2 mph 0.01 in   Overcast
3:15 PM 39.4 °F 31.4 °F 37.9 °F 95% 29.90 in 4.0 mi NNE 13.8 mph 25.3 mph N/A   Overcast
3:35 PM 40.1 °F 32.0 °F 38.7 °F 95% 29.92 in 7.0 mi NNE 15.0 mph 20.7 mph N/A   Overcast
3:55 PM 40.8 °F 33.7 °F 39.0 °F 93% 29.94 in 10.0 mi NNE 12.7 mph 18.4 mph N/A   Overcast
4:15 PM 41.0 °F 33.5 °F 39.0 °F 93% 29.91 in 7.0 mi North 13.8 mph 18.4 mph N/A   Overcast
4:35 PM 40.6 °F 34.3 °F 38.5 °F 92% 29.92 in 10.0 mi North 10.4 mph 17.3 mph N/A   Overcast
4:55 PM 40.6 °F 33.4 °F 38.5 °F 92% 29.91 in 10.0 mi North 12.7 mph 19.6 mph N/A   Overcast
5:15 PM 40.3 °F 34.9 °F 38.3 °F 93% 29.95 in 10.0 mi North 8.1 mph 11.5 mph N/A   Overcast
5:35 PM 40.1 °F 32.4 °F 38.5 °F 94% 29.90 in 7.0 mi NNE 13.8 mph 20.7 mph 0.01 in Rain Light Rain
5:55 PM 40.1 °F 34.1 °F 38.7 °F 95% 29.85 in 4.0 mi NE 9.2 mph 25.3 mph 0.01 in   Light Drizzle
6:15 PM 40.5 °F 33.6 °F 39.2 °F 95% 29.86 in 5.0 mi NE 11.5 mph 17.3 mph N/A   Overcast
6:35 PM 40.6 °F 33.0 °F 39.2 °F 95% 29.86 in 7.0 mi NNE 13.8 mph 19.6 mph N/A   Overcast
6:55 PM 41.0 °F 33.9 °F 39.6 °F 95% 29.85 in 5.0 mi NNE 12.7 mph 18.4 mph N/A   Overcast
7:15 PM 41.2 °F 35.0 °F 39.6 °F 94% 29.86 in 4.0 mi NNE 10.4 mph - N/A   Overcast
7:35 PM 41.2 °F 36.0 °F 39.6 °F 94% 29.86 in 5.0 mi NE 8.1 mph - N/A   Overcast
7:55 PM 41.0 °F 34.3 °F 39.4 °F 94% 29.86 in 7.0 mi NE 11.5 mph - N/A   Overcast
8:15 PM 40.6 °F 33.0 °F 39.2 °F 95% 29.81 in 5.0 mi NNE 13.8 mph 19.6 mph N/A   Overcast
8:35 PM 41.2 °F 35.0 °F 40.1 °F 96% 29.82 in 5.0 mi NE 10.4 mph - N/A   Overcast
8:55 PM 41.2 °F 34.5 °F 40.1 °F 96% 29.82 in 4.0 mi NE 11.5 mph 18.4 mph N/A   Overcast
9:15 PM 41.2 °F 35.0 °F 40.1 °F 96% 29.83 in 4.0 mi NE 10.4 mph - N/A   Overcast
9:35 PM 41.2 °F 35.0 °F 40.1 °F 96% 29.83 in 4.0 mi NE 10.4 mph - N/A Rain Light Rain
9:55 PM 41.0 °F 34.7 °F 40.1 °F 97% 29.80 in 4.0 mi NE 10.4 mph - 0.02 in Rain Light Rain
10:15 PM 41.5 °F 37.1 °F 40.5 °F 96% 29.82 in 4.0 mi NNE 6.9 mph - N/A   Overcast
10:35 PM 41.4 °F 34.7 °F 40.3 °F 96% 29.83 in 3.0 mi North 11.5 mph - 0.02 in Rain , Thunderstorm Rain
10:55 PM 41.4 °F 34.3 °F 40.3 °F 96% 29.85 in 4.0 mi NE 12.7 mph - 0.05 in Rain Rain
11:35 PM 40.8 °F 32.9 °F 39.4 °F 95% 29.85 in 2.5 mi NE 15.0 mph 23.0 mph 0.18 in Rain Heavy Rain
11:55 PM 40.1 °F 30.7 °F 38.8 °F 95% 29.80 in 3.0 mi NNE 19.6 mph 25.3 mph 0.34 in Rain , Thunderstorm Rain